Вернуться в каталог

COSMOS 1275 DEB

АктивенPO
NORAD 42204·DEBRIS·🇷🇺 Russia

Запущен Jun 4, 1981 с Plesetsk Cosmodrome

Loading…

Ближайшие Пролёты (ближайшие 24 часа)

TLE

УстаревающийSource: Space-Track

Эпоха: Sep 10, 2026, 23:37 UTC

1 42204U 81053TU  26253.98455972  .00000538  00000-0  56456-3 0  9991
2 42204  83.0682 347.4900 0126904 237.9000 120.9785 13.69996705638342

Отслеживайте COSMOS 1275 DEB в реальном времени с AllMySat

Download on the App Store